Darstellungsparameter: Aktuell verwendete Einstellungen:
Skalierung der Graphiken ... ?
xyx+y,   Skalierungsfaktor:      Skalierung: Modus: x, Faktor: 1
Darstellungszeitraum ... ?
Vom - - bis: - -   Zeitraum: 27.03.2020 - 31.03.2020
Min/Max/Avg-Anzeige ... ?
Zeige MMA aktuell
Zeige MMA Monat
Zeige MMA alles
Zeige --A aktuell
Zeige --A Monat
Zeige --A alles
Keine MMA-Anzeige
MMA:
Keine MMA-Graphiken
MMA-Basis: 27.03.2020 - 31.03.2020
Quicknavigation für Darstellung... ?
Tage:      1T, 2T, 3T, 5T -1T -2T -3T -5T +1T +2T +3T +5T
Wochen: 1W, 2W, 3W -1W -2W -3W +1W +2W +3W
Monate: 1M, 3M, 6M -1M -3M -6M +1M +3M +6M
Jahre:    1J, 3J, 5J, 10J -1J -3J -5J -10J +1J +3J +5J +10J
Nutze für die Darstellung ... ?
Originaldaten oder Mittelwerte auf ...
Stundenbasis Tagesbasis Wochenbasis
Monatsbasis Jahresbasis      Datenbasis: Original-Daten
Darstellen als:
Statistik (Auto) Statistik J:M      Darstellung:
Zur Graphik,    zurück zur Übersicht aller Sensoren.
 
Tabellarische Datenbersicht: ?
 
Sensor: Nr:Datum:Temp:Feuchte:
Aussen-T/F 1 27-03-2020 00:00:18 4 C 30 %
2 27-03-2020 00:10:18 3.9 C 31 %
3 27-03-2020 00:20:17 4 C 30 %
4 27-03-2020 00:30:17 4 C 30 %
5 27-03-2020 00:40:17 3.7 C 32 %
6 27-03-2020 00:50:18 3.6 C 32 %
7 27-03-2020 01:00:18 2.7 C 35 %
8 27-03-2020 01:10:18 2.5 C 36 %
9 27-03-2020 01:20:17 3 C 35 %
10 27-03-2020 01:30:18 3.1 C 35 %
11 27-03-2020 01:40:18 2.7 C 36 %
12 27-03-2020 01:50:18 3 C 35 %
13 27-03-2020 02:00:18 2.9 C 35 %
14 27-03-2020 02:10:18 2.8 C 35 %
15 27-03-2020 02:20:17 2.7 C 35 %
16 27-03-2020 02:30:17 2.5 C 36 %
17 27-03-2020 02:40:17 2.5 C 36 %
18 27-03-2020 02:50:17 2.6 C 35 %
19 27-03-2020 03:00:17 2.6 C 35 %
20 27-03-2020 03:10:17 2.2 C 36 %
21 27-03-2020 03:20:17 2.5 C 35 %
22 27-03-2020 03:30:17 2.4 C 35 %
23 27-03-2020 03:40:17 2.6 C 35 %
24 27-03-2020 03:50:17 2.4 C 36 %
25 27-03-2020 04:00:18 2.4 C 35 %
Sensor: Nr:Datum:Temp:Feuchte:
Aussen-T/F 26 27-03-2020 04:10:18 2.4 C 35 %
27 27-03-2020 04:20:18 1.4 C 38 %
28 27-03-2020 04:30:18 1.3 C 38 %
29 27-03-2020 04:40:18 1.6 C 38 %
30 27-03-2020 04:50:17 1.8 C 37 %
31 27-03-2020 05:00:18 1.5 C 38 %
32 27-03-2020 05:10:18 0.7 C 40 %
33 27-03-2020 05:20:18 0.4 C 40 %
34 27-03-2020 05:30:18 0 C 41 %
35 27-03-2020 05:40:18 0 C 42 %
36 27-03-2020 05:50:18 -0.1 C 42 %
37 27-03-2020 06:00:18 -0.5 C 42 %
38 27-03-2020 06:10:18 -0.6 C 43 %
39 27-03-2020 06:20:18 -0.4 C 43 %
40 27-03-2020 06:30:18 -0.4 C 43 %
41 27-03-2020 06:40:18 -0.3 C 43 %
42 27-03-2020 06:50:17 -0.3 C 43 %
43 27-03-2020 07:00:18 -0.2 C 43 %
44 27-03-2020 07:10:18 -0.1 C 43 %
45 27-03-2020 07:20:18 0.1 C 43 %
46 27-03-2020 07:30:18 0.3 C 43 %
47 27-03-2020 07:40:18 0.8 C 43 %
48 27-03-2020 07:50:17 1.2 C 41 %
49 27-03-2020 08:00:17 1.1 C 41 %
50 27-03-2020 08:10:18 1.9 C 40 %
Sensor: Nr:Datum:Temp:Feuchte:
Aussen-T/F 51 27-03-2020 08:20:18 1.7 C 40 %
52 27-03-2020 08:30:18 1.6 C 41 %
53 27-03-2020 08:40:18 1.9 C 41 %
54 27-03-2020 08:50:17 2.6 C 39 %
55 27-03-2020 09:00:18 3 C 38 %
56 27-03-2020 09:10:18 3.3 C 37 %
57 27-03-2020 09:20:17 3.6 C 37 %
58 27-03-2020 09:30:18 4.1 C 36 %
59 27-03-2020 09:40:18 4.5 C 35 %
60 27-03-2020 09:50:18 5.3 C 35 %
61 27-03-2020 10:00:18 5.8 C 34 %
62 27-03-2020 10:10:18 6.5 C 32 %
63 27-03-2020 10:20:17 7.6 C 30 %
64 27-03-2020 10:30:17 8.1 C 28 %
65 27-03-2020 10:40:17 9.1 C 25 %
66 27-03-2020 10:50:17 9.3 C 25 %
67 27-03-2020 11:00:17 10.2 C 20 %
68 27-03-2020 11:10:17 11 C 20 %
69 27-03-2020 11:20:17 12.4 C 20 %
70 27-03-2020 11:30:17 14.5 C 20 %
71 27-03-2020 11:40:17 14.2 C 20 %
72 27-03-2020 11:50:17 12.5 C 20 %
73 27-03-2020 12:00:17 13.4 C 20 %
74 27-03-2020 12:10:17 13.7 C 20 %
75 27-03-2020 12:20:17 14.4 C 20 %
Sensor: Nr:Datum:Temp:Feuchte:
Aussen-T/F 76 27-03-2020 12:30:17 14.1 C 20 %
77 27-03-2020 12:40:18 14.2 C 20 %
78 27-03-2020 12:50:18 14.6 C 20 %
79 27-03-2020 13:00:18 16.6 C 20 %
80 27-03-2020 13:10:18 15.8 C 20 %
81 27-03-2020 13:20:17 17.6 C 20 %
82 27-03-2020 13:30:18 18.8 C 20 %
83 27-03-2020 13:40:18 16.8 C 20 %
84 27-03-2020 13:50:18 17.3 C 20 %
85 27-03-2020 14:00:18 16.9 C 20 %
86 27-03-2020 14:10:18 17.6 C 20 %
87 27-03-2020 14:20:18 17.7 C 20 %
88 27-03-2020 14:30:17 20.4 C 20 %
89 27-03-2020 14:40:17 18.1 C 20 %
90 27-03-2020 14:50:17 18.4 C 20 %
91 27-03-2020 15:00:17 18.5 C 20 %
92 27-03-2020 15:10:17 18.7 C 20 %
93 27-03-2020 15:20:17 18.9 C 20 %
94 27-03-2020 15:30:18 19.4 C 20 %
95 27-03-2020 15:40:18 18.3 C 20 %
96 27-03-2020 15:50:17 19.5 C 20 %
97 27-03-2020 16:00:17 18.5 C 20 %
98 27-03-2020 16:10:17 18.2 C 20 %
99 27-03-2020 16:20:17 19.2 C 20 %
100 27-03-2020 16:30:17 18.3 C 20 %
Sensor: Nr:Datum:Temp:Feuchte:
Aussen-T/F 101 27-03-2020 16:40:17 18 C 20 %
102 27-03-2020 16:50:17 17 C 20 %
103 27-03-2020 17:00:18 16.4 C 20 %
104 27-03-2020 17:10:18 16.3 C 20 %
105 27-03-2020 17:20:18 16.1 C 20 %
106 27-03-2020 17:30:18 16 C 20 %
107 27-03-2020 17:40:18 15.8 C 20 %
108 27-03-2020 17:50:18 15.7 C 20 %
109 27-03-2020 18:00:17 15.4 C 20 %
110 27-03-2020 18:10:17 15 C 20 %
111 27-03-2020 18:20:17 14.1 C 20 %
112 27-03-2020 18:30:18 13.5 C 20 %
113 27-03-2020 18:40:18 12.9 C 20 %
114 27-03-2020 18:50:18 12.3 C 20 %
115 27-03-2020 19:00:18 11.8 C 20 %
116 27-03-2020 19:10:18 11.5 C 20 %
117 27-03-2020 19:20:17 11.4 C 20 %
118 27-03-2020 19:30:17 10.7 C 20 %
119 27-03-2020 19:40:17 10.7 C 21 %
120 27-03-2020 19:50:17 10.4 C 23 %
121 27-03-2020 20:00:18 10.4 C 22 %
122 27-03-2020 20:10:18 9.2 C 26 %
123 27-03-2020 20:20:17 8.9 C 28 %
124 27-03-2020 20:30:17 8.4 C 30 %
125 27-03-2020 20:40:17 8.1 C 30 %
Sensor: Nr:Datum:Temp:Feuchte:
Aussen-T/F 126 27-03-2020 20:50:18 7.8 C 31 %
127 27-03-2020 21:00:17 7.4 C 31 %
128 27-03-2020 21:10:17 7.3 C 32 %
129 27-03-2020 21:20:17 7.1 C 32 %
130 27-03-2020 21:30:17 7 C 32 %
131 27-03-2020 21:40:17 6.6 C 33 %
132 27-03-2020 21:50:17 6.6 C 34 %
133 27-03-2020 22:00:17 6.4 C 34 %
134 27-03-2020 22:10:17 6.3 C 34 %
135 27-03-2020 22:20:17 6 C 35 %
136 27-03-2020 22:30:18 5.8 C 35 %
137 27-03-2020 22:40:18 5.6 C 35 %
138 27-03-2020 22:50:18 5.5 C 36 %
139 27-03-2020 23:00:18 5.6 C 36 %
140 27-03-2020 23:10:18 5.6 C 36 %
141 27-03-2020 23:20:17 5.3 C 36 %
142 27-03-2020 23:30:17 5.2 C 36 %
143 27-03-2020 23:40:17 5.1 C 36 %
144 27-03-2020 23:50:17 4.8 C 37 %
145 28-03-2020 00:00:17 4.8 C 38 %
146 28-03-2020 00:10:17 4.8 C 39 %
147 28-03-2020 00:20:17 5 C 37 %
148 28-03-2020 00:30:18 4.9 C 38 %
149 28-03-2020 00:40:18 4.7 C 38 %
150 28-03-2020 00:50:17 4.7 C 38 %
Sensor: Nr:Datum:Temp:Feuchte:
Aussen-T/F 151 28-03-2020 01:00:17 4.6 C 38 %
152 28-03-2020 01:10:17 4.4 C 39 %
153 28-03-2020 01:20:17 4.3 C 39 %
154 28-03-2020 01:30:17 4.1 C 39 %
155 28-03-2020 01:40:18 3.9 C 40 %
156 28-03-2020 01:50:17 3.7 C 41 %
157 28-03-2020 02:00:18 3.6 C 41 %
158 28-03-2020 02:10:18 3.3 C 41 %
159 28-03-2020 02:20:18 3.1 C 41 %
160 28-03-2020 02:30:17 3.7 C 42 %
161 28-03-2020 02:40:17 3.7 C 41 %
162 28-03-2020 02:50:18 3.4 C 41 %
163 28-03-2020 03:00:18 3.1 C 41 %
164 28-03-2020 03:10:18 2.9 C 42 %
165 28-03-2020 03:20:17 2.8 C 43 %
166 28-03-2020 03:30:18 2.6 C 43 %
167 28-03-2020 03:40:18 2.1 C 43 %
168 28-03-2020 03:50:17 2.1 C 44 %
169 28-03-2020 04:00:18 2.2 C 44 %
170 28-03-2020 04:10:18 2.1 C 44 %
171 28-03-2020 04:20:18 1.9 C 45 %
172 28-03-2020 04:30:18 1.7 C 45 %
173 28-03-2020 04:40:18 1.8 C 46 %
174 28-03-2020 04:50:17 1.8 C 46 %
175 28-03-2020 05:00:18 1.7 C 45 %
Sensor: Nr:Datum:Temp:Feuchte:
Aussen-T/F 176 28-03-2020 05:10:18 1.6 C 45 %
177 28-03-2020 05:20:17 1.5 C 45 %
178 28-03-2020 05:30:18 1.3 C 46 %
179 28-03-2020 05:40:18 1.2 C 46 %
180 28-03-2020 05:50:18 1.2 C 46 %
181 28-03-2020 06:00:18 1.2 C 46 %
182 28-03-2020 06:10:18 1.3 C 46 %
183 28-03-2020 06:20:17 1.1 C 46 %
184 28-03-2020 06:30:17 1.1 C 46 %
185 28-03-2020 06:40:17 1 C 46 %
186 28-03-2020 06:50:17 1.2 C 47 %
187 28-03-2020 07:00:17 1.5 C 47 %
188 28-03-2020 07:10:17 1.7 C 47 %
189 28-03-2020 07:20:17 1.9 C 47 %
190 28-03-2020 07:30:18 1.9 C 46 %
191 28-03-2020 07:40:18 1.9 C 46 %
192 28-03-2020 07:50:17 2 C 45 %
193 28-03-2020 08:00:17 2.2 C 45 %
194 28-03-2020 08:10:18 2.5 C 45 %
195 28-03-2020 08:20:18 2.8 C 46 %
196 28-03-2020 08:30:17 3.2 C 45 %
197 28-03-2020 08:40:17 3.7 C 44 %
198 28-03-2020 08:50:18 4 C 43 %
199 28-03-2020 09:00:18 4.6 C 43 %
200 28-03-2020 09:10:18 5.1 C 41 %
Sensor: Nr:Datum:Temp:Feuchte:
Aussen-T/F 201 28-03-2020 09:20:17 5.7 C 41 %
202 28-03-2020 09:30:18 6.3 C 40 %
203 28-03-2020 09:40:18 6.9 C 40 %
204 28-03-2020 09:50:18 7.8 C 38 %
205 28-03-2020 10:00:18 8.4 C 37 %
206 28-03-2020 10:10:18 9.5 C 35 %
207 28-03-2020 10:20:17 10.2 C 32 %
208 28-03-2020 10:30:17 10.9 C 31 %
209 28-03-2020 10:40:17 11.6 C 30 %
210 28-03-2020 10:50:18 12.2 C 29 %
211 28-03-2020 11:00:18 13.4 C 26 %
212 28-03-2020 11:10:18 13.6 C 25 %
213 28-03-2020 11:20:17 15.8 C 20 %
214 28-03-2020 11:30:17 16.7 C 20 %
215 28-03-2020 11:40:17 16.4 C 20 %
216 28-03-2020 11:50:18 15.9 C 20 %
217 28-03-2020 12:00:17 16.6 C 20 %
218 28-03-2020 12:10:17 17 C 20 %
219 28-03-2020 12:20:17 17.7 C 20 %
220 28-03-2020 12:30:17 17.8 C 20 %
221 28-03-2020 12:40:17 18.1 C 20 %
222 28-03-2020 12:50:18 18 C 20 %
223 28-03-2020 13:00:18 18.6 C 20 %
224 28-03-2020 13:10:18 19.6 C 20 %
225 28-03-2020 13:20:18 21.7 C 20 %
Sensor: Nr:Datum:Temp:Feuchte:
Aussen-T/F 226 28-03-2020 13:30:17 21.1 C 20 %
227 28-03-2020 13:40:17 20.7 C 20 %
228 28-03-2020 13:50:18 20.6 C 20 %
229 28-03-2020 14:00:17 21.1 C 20 %
230 28-03-2020 14:10:17 21.3 C 20 %
231 28-03-2020 14:20:17 21.9 C 20 %
232 28-03-2020 14:30:17 23.7 C 20 %
233 28-03-2020 14:40:17 24.3 C 20 %
234 28-03-2020 14:50:17 23.2 C 20 %
235 28-03-2020 15:00:18 22.4 C 20 %
236 28-03-2020 15:10:18 19.9 C 20 %
237 28-03-2020 15:20:18 18.6 C 20 %
238 28-03-2020 15:30:18 19.6 C 20 %
239 28-03-2020 15:40:18 22.1 C 20 %
240 28-03-2020 15:50:18 20.5 C 20 %
241 28-03-2020 16:00:18 21.1 C 20 %
242 28-03-2020 16:10:18 21.1 C 20 %
243 28-03-2020 16:20:18 19.9 C 20 %
244 28-03-2020 16:30:18 19.6 C 20 %
245 28-03-2020 16:40:18 19.6 C 20 %
246 28-03-2020 16:50:18 18.5 C 20 %
247 28-03-2020 17:00:18 17.9 C 20 %
248 28-03-2020 17:10:18 17 C 20 %
249 28-03-2020 17:20:18 16.6 C 20 %
250 28-03-2020 17:30:18 16.2 C 20 %
Sensor: Nr:Datum:Temp:Feuchte:
Aussen-T/F 251 28-03-2020 17:40:18 16.2 C 20 %
252 28-03-2020 17:50:17 15.4 C 20 %
253 28-03-2020 18:00:18 14.9 C 20 %
254 28-03-2020 18:10:18 14.6 C 20 %
255 28-03-2020 18:20:17 14 C 20 %
256 28-03-2020 18:30:17 13.5 C 20 %
257 28-03-2020 18:40:17 13.1 C 20 %
258 28-03-2020 18:50:18 12.6 C 20 %
259 28-03-2020 19:00:18 12.3 C 20 %
260 28-03-2020 19:10:18 11.7 C 20 %
261 28-03-2020 19:20:18 11.7 C 20 %
262 28-03-2020 19:30:18 11.4 C 20 %
263 28-03-2020 19:40:18 11.2 C 20 %
264 28-03-2020 19:50:17 10.8 C 20 %
265 28-03-2020 20:00:18 10.3 C 20 %
266 28-03-2020 20:10:18 10.7 C 20 %
267 28-03-2020 20:20:17 10.5 C 20 %
268 28-03-2020 20:30:18 10 C 20 %
269 28-03-2020 20:40:18 9.2 C 20 %
270 28-03-2020 20:50:17 8.7 C 20 %
271 28-03-2020 21:00:17 8.8 C 20 %
272 28-03-2020 21:10:17 9.2 C 20 %
273 28-03-2020 21:20:17 8.7 C 23 %
274 28-03-2020 21:30:17 8.1 C 25 %
275 28-03-2020 21:40:17 8.4 C 23 %
Sensor: Nr:Datum:Temp:Feuchte:
Aussen-T/F 276 28-03-2020 21:50:17 7.6 C 25 %
277 28-03-2020 22:00:17 8.3 C 25 %
278 28-03-2020 22:10:17 8.5 C 21 %
279 28-03-2020 22:20:17 8.4 C 25 %
280 28-03-2020 22:30:17 8.3 C 26 %
281 28-03-2020 22:40:17 7.9 C 26 %
282 28-03-2020 22:50:17 7.4 C 28 %
283 28-03-2020 23:00:17 7.3 C 30 %
284 28-03-2020 23:10:17 7.2 C 30 %
285 28-03-2020 23:20:18 7.1 C 30 %
286 28-03-2020 23:30:18 7.1 C 31 %
287 28-03-2020 23:40:18 6.8 C 32 %
288 28-03-2020 23:50:17 6.7 C 33 %
289 29-03-2020 00:00:18 6.5 C 33 %
290 29-03-2020 00:10:18 6.4 C 33 %
291 29-03-2020 00:20:17 6.2 C 33 %
292 29-03-2020 00:30:17 6.5 C 33 %
293 29-03-2020 00:40:17 6.6 C 33 %
294 29-03-2020 00:50:18 6.5 C 32 %
295 29-03-2020 01:00:18 6.3 C 32 %
296 29-03-2020 01:10:18 6.3 C 32 %
297 29-03-2020 01:20:17 6.2 C 32 %
298 29-03-2020 01:30:17 6.1 C 32 %
299 29-03-2020 01:40:17 6 C 31 %
300 29-03-2020 01:50:17 6 C 31 %
Sensor: Nr:Datum:Temp:Feuchte:
Aussen-T/F 301 29-03-2020 02:00:17 5.8 C 31 %
302 29-03-2020 02:10:17 5.7 C 31 %
303 29-03-2020 02:20:18 5.4 C 31 %
304 29-03-2020 02:30:18 5 C 31 %
305 29-03-2020 02:40:18 4.7 C 32 %
306 29-03-2020 02:50:18 4.7 C 32 %
307 29-03-2020 04:00:18 4.6 C 31 %
308 29-03-2020 04:10:18 4.2 C 32 %
309 29-03-2020 04:20:17 4.1 C 31 %
310 29-03-2020 04:30:17 4.3 C 31 %
311 29-03-2020 04:40:17 4.4 C 31 %
312 29-03-2020 04:50:18 4.3 C 31 %
313 29-03-2020 05:00:17 4.4 C 32 %
314 29-03-2020 05:10:17 4.3 C 32 %
315 29-03-2020 05:20:17 4.2 C 31 %
316 29-03-2020 05:30:17 4 C 31 %
317 29-03-2020 05:40:17 3.8 C 32 %
318 29-03-2020 05:50:18 3.5 C 32 %
319 29-03-2020 06:00:18 3.1 C 32 %
320 29-03-2020 06:10:18 2.8 C 33 %
321 29-03-2020 06:20:17 2.5 C 33 %
322 29-03-2020 06:30:18 2.9 C 33 %
323 29-03-2020 06:40:18 3.2 C 32 %
324 29-03-2020 06:50:17 3.3 C 33 %
325 29-03-2020 07:00:18 3.4 C 33 %
Sensor: Nr:Datum:Temp:Feuchte:
Aussen-T/F 326 29-03-2020 07:10:18 3.5 C 34 %
327 29-03-2020 07:20:17 3.5 C 35 %
328 29-03-2020 07:30:17 3.6 C 35 %
329 29-03-2020 07:40:17 3.7 C 35 %
330 29-03-2020 07:50:17 3.7 C 35 %
331 29-03-2020 08:00:18 3.8 C 35 %
332 29-03-2020 08:10:18 3.8 C 35 %
333 29-03-2020 08:20:17 4.1 C 33 %
334 29-03-2020 08:30:17 4.1 C 33 %
335 29-03-2020 08:40:17 4.3 C 33 %
336 29-03-2020 08:50:17 4 C 33 %
337 29-03-2020 09:00:17 4.3 C 33 %
338 29-03-2020 09:10:17 4.2 C 32 %
339 29-03-2020 09:20:17 4.1 C 33 %
340 29-03-2020 09:30:17 4.2 C 33 %
341 29-03-2020 09:40:17 4.5 C 32 %
342 29-03-2020 09:50:17 4.8 C 32 %
343 29-03-2020 10:00:17 5 C 31 %
344 29-03-2020 10:10:17 5.3 C 31 %
345 29-03-2020 10:20:17 5.8 C 30 %
346 29-03-2020 10:30:18 5.6 C 30 %
347 29-03-2020 10:40:18 6.2 C 30 %
348 29-03-2020 10:50:17 6.2 C 28 %
349 29-03-2020 11:00:18 6.5 C 25 %
350 29-03-2020 11:10:18 6.5 C 25 %
Sensor: Nr:Datum:Temp:Feuchte:
Aussen-T/F 351 29-03-2020 11:20:18 6 C 25 %
352 29-03-2020 11:30:18 6.1 C 25 %
353 29-03-2020 11:40:18 6.2 C 25 %
354 29-03-2020 11:50:17 6.3 C 25 %
355 29-03-2020 12:00:17 6.2 C 25 %
356 29-03-2020 12:10:17 5.6 C 27 %
357 29-03-2020 12:20:17 5.5 C 27 %
358 29-03-2020 12:30:17 5.7 C 27 %
359 29-03-2020 12:40:17 5.8 C 26 %
360 29-03-2020 12:50:18 6.4 C 26 %
361 29-03-2020 13:00:18 6.3 C 25 %
362 29-03-2020 13:10:18 6.1 C 25 %
363 29-03-2020 13:20:17 6.6 C 23 %
364 29-03-2020 13:30:17 6.8 C 20 %
365 29-03-2020 13:40:18 8.1 C 20 %
366 29-03-2020 13:50:17 8.4 C 20 %
367 29-03-2020 14:00:18 7.6 C 20 %
368 29-03-2020 14:10:18 7.5 C 20 %
369 29-03-2020 14:20:17 7 C 20 %
370 29-03-2020 14:30:17 6.7 C 20 %
371 29-03-2020 14:40:17 6.5 C 20 %
372 29-03-2020 14:50:17 6.7 C 20 %
373 29-03-2020 15:00:17 7.2 C 20 %
374 29-03-2020 15:10:17 7.4 C 20 %
375 29-03-2020 15:20:17 7.4 C 20 %
Sensor: Nr:Datum:Temp:Feuchte:
Aussen-T/F 376 29-03-2020 15:30:18 7.6 C 20 %
377 29-03-2020 15:40:18 7.6 C 20 %
378 29-03-2020 15:50:17 8 C 20 %
379 29-03-2020 16:00:18 7.4 C 20 %
380 29-03-2020 16:10:18 7 C 20 %
381 29-03-2020 16:20:17 6.7 C 20 %
382 29-03-2020 16:30:18 6.5 C 20 %
383 29-03-2020 16:40:18 6.6 C 20 %
384 29-03-2020 16:50:18 6.8 C 20 %
385 29-03-2020 17:00:18 7 C 20 %
386 29-03-2020 17:10:18 6.8 C 20 %
387 29-03-2020 17:20:17 7.4 C 20 %
388 29-03-2020 17:30:17 7 C 20 %
389 29-03-2020 17:40:17 7 C 20 %
390 29-03-2020 17:50:18 6.8 C 25 %
391 29-03-2020 18:00:18 7.1 C 23 %
392 29-03-2020 18:10:18 6.5 C 25 %
393 29-03-2020 18:20:18 6.2 C 25 %
394 29-03-2020 18:30:18 5.3 C 29 %
395 29-03-2020 18:40:18 4.4 C 35 %
396 29-03-2020 18:50:18 4.1 C 36 %
397 29-03-2020 19:00:18 4 C 36 %
398 29-03-2020 19:10:18 3.6 C 39 %
399 29-03-2020 19:20:17 3.6 C 40 %
400 29-03-2020 19:30:17 3.4 C 40 %
Sensor: Nr:Datum:Temp:Feuchte:
Aussen-T/F 401 29-03-2020 19:40:17 3.2 C 41 %
402 29-03-2020 19:50:17 3.1 C 41 %
403 29-03-2020 20:00:17 3 C 41 %
404 29-03-2020 20:10:17 3 C 41 %
405 29-03-2020 20:20:18 2.9 C 42 %
406 29-03-2020 20:30:18 3 C 41 %
407 29-03-2020 20:40:18 3.3 C 40 %
408 29-03-2020 20:50:18 3.5 C 40 %
409 29-03-2020 21:00:18 3.6 C 39 %
410 29-03-2020 21:10:18 3.7 C 39 %
411 29-03-2020 21:20:18 3.7 C 38 %
412 29-03-2020 21:30:17 3.7 C 37 %
413 29-03-2020 21:40:17 3.8 C 37 %
414 29-03-2020 21:50:17 3.8 C 37 %
415 29-03-2020 22:00:17 3.7 C 37 %
416 29-03-2020 22:10:17 3.7 C 36 %
417 29-03-2020 22:20:18 3.7 C 36 %
418 29-03-2020 22:30:18 3.6 C 36 %
419 29-03-2020 22:40:18 3.6 C 36 %
420 29-03-2020 22:50:18 3.6 C 35 %
421 29-03-2020 23:00:18 3.6 C 35 %
422 29-03-2020 23:10:18 3.5 C 35 %
423 29-03-2020 23:20:17 3.4 C 34 %
424 29-03-2020 23:30:17 3.3 C 33 %
425 29-03-2020 23:40:17 3.1 C 33 %
Sensor: Nr:Datum:Temp:Feuchte:
Aussen-T/F 426 29-03-2020 23:50:17 2.9 C 33 %
427 30-03-2020 00:00:18 2.5 C 34 %
428 30-03-2020 00:10:18 2.4 C 33 %
429 30-03-2020 00:20:17 2.4 C 33 %
430 30-03-2020 00:30:17 1.7 C 35 %
431 30-03-2020 00:40:17 1 C 36 %
432 30-03-2020 00:50:17 0.3 C 38 %
433 30-03-2020 01:00:18 0.2 C 38 %
434 30-03-2020 01:10:18 0.3 C 38 %
435 30-03-2020 01:20:17 0.3 C 37 %
436 30-03-2020 01:30:18 0.5 C 36 %
437 30-03-2020 01:40:18 -0.1 C 37 %
438 30-03-2020 01:50:17 -0.3 C 37 %
439 30-03-2020 02:00:17 -0.8 C 38 %
440 30-03-2020 02:10:17 -0.9 C 38 %
441 30-03-2020 02:20:17 -1.5 C 39 %
442 30-03-2020 02:30:18 -1.7 C 39 %
443 30-03-2020 02:40:18 -1.6 C 40 %
444 30-03-2020 02:50:17 -1.6 C 39 %
445 30-03-2020 03:00:18 -1.7 C 39 %
446 30-03-2020 03:10:18 -1.3 C 38 %
447 30-03-2020 03:20:18 -1.7 C 39 %
448 30-03-2020 03:30:18 -2.2 C 40 %
449 30-03-2020 03:40:18 -2.1 C 40 %
450 30-03-2020 03:50:17 -2.1 C 40 %
Sensor: Nr:Datum:Temp:Feuchte:
Aussen-T/F 451 30-03-2020 04:00:18 -1.9 C 39 %
452 30-03-2020 04:10:18 -2.2 C 39 %
453 30-03-2020 04:20:17 -2 C 39 %
454 30-03-2020 04:30:17 -2.4 C 39 %
455 30-03-2020 04:40:17 -2.6 C 39 %
456 30-03-2020 04:50:17 -2.4 C 39 %
457 30-03-2020 05:00:17 -2.4 C 38 %
458 30-03-2020 05:10:17 -2.5 C 38 %
459 30-03-2020 05:20:17 -2.7 C 38 %
460 30-03-2020 05:30:18 -3 C 39 %
461 30-03-2020 05:40:18 -3 C 38 %
462 30-03-2020 05:50:17 -3 C 38 %
463 30-03-2020 06:00:18 -3 C 38 %
464 30-03-2020 06:10:18 -3.4 C 38 %
465 30-03-2020 06:20:17 -3.7 C 39 %
466 30-03-2020 06:30:17 -3.9 C 40 %
467 30-03-2020 06:40:17 -4.1 C 40 %
468 30-03-2020 06:50:17 -3.3 C 39 %
469 30-03-2020 07:00:17 -3.7 C 40 %
470 30-03-2020 07:10:17 -3.2 C 39 %
471 30-03-2020 07:20:17 -3.8 C 39 %
472 30-03-2020 07:30:18 -4.3 C 40 %
473 30-03-2020 07:40:18 -4.5 C 40 %
474 30-03-2020 07:50:17 -4.5 C 40 %
475 30-03-2020 08:00:18 -3.8 C 40 %
Sensor: Nr:Datum:Temp:Feuchte:
Aussen-T/F 476 30-03-2020 08:10:18 -3.9 C 40 %
477 30-03-2020 08:20:18 -4.1 C 40 %
478 30-03-2020 08:30:18 -3.7 C 39 %
479 30-03-2020 08:40:18 -3.3 C 39 %
480 30-03-2020 08:50:17 -3.2 C 38 %
481 30-03-2020 09:00:18 -3.1 C 38 %
482 30-03-2020 09:10:18 -2.7 C 37 %
483 30-03-2020 09:20:18 -2.6 C 37 %
484 30-03-2020 09:30:18 -2.5 C 37 %
485 30-03-2020 09:40:18 -2.1 C 37 %
486 30-03-2020 09:50:18 -2.1 C 37 %
487 30-03-2020 10:00:18 -1.6 C 36 %
488 30-03-2020 10:10:18 -1.7 C 37 %
489 30-03-2020 10:20:17 -1.5 C 37 %
490 30-03-2020 10:30:17 -1.3 C 36 %
491 30-03-2020 10:40:17 0.1 C 31 %
492 30-03-2020 10:50:17 1 C 21 %
493 30-03-2020 11:00:17 1.1 C 23 %
494 30-03-2020 11:10:18 2 C 20 %
495 30-03-2020 11:20:18 2.4 C 20 %
496 30-03-2020 11:30:18 2.8 C 20 %
497 30-03-2020 11:40:18 2.9 C 20 %
498 30-03-2020 11:50:18 3.2 C 20 %
499 30-03-2020 12:00:18 3.7 C 20 %
500 30-03-2020 12:10:18 4 C 20 %
Sensor: Nr:Datum:Temp:Feuchte:
Aussen-T/F 501 30-03-2020 12:20:18 6.4 C 20 %
502 30-03-2020 12:30:18 7.6 C 20 %
503 30-03-2020 12:40:18 6.3 C 20 %
504 30-03-2020 12:50:18 5.1 C 20 %
505 30-03-2020 13:00:18 6.6 C 20 %
506 30-03-2020 13:10:18 6.5 C 20 %
507 30-03-2020 13:20:18 5.6 C 20 %
508 30-03-2020 13:30:17 5.9 C 20 %
509 30-03-2020 13:40:17 7 C 20 %
510 30-03-2020 13:50:17 6.4 C 20 %
511 30-03-2020 14:00:17 7.1 C 20 %
512 30-03-2020 14:10:17 8.4 C 20 %
513 30-03-2020 14:20:18 8.9 C 20 %
514 30-03-2020 14:30:18 9.5 C 20 %
515 30-03-2020 14:40:18 9.7 C 20 %
516 30-03-2020 14:50:18 10.8 C 20 %
517 30-03-2020 15:00:18 11.3 C 20 %
518 30-03-2020 15:10:18 11.7 C 20 %
519 30-03-2020 15:20:17 11.6 C 20 %
520 30-03-2020 15:30:18 13.5 C 20 %
521 30-03-2020 15:40:18 13.6 C 20 %
522 30-03-2020 15:50:18 11.9 C 20 %
523 30-03-2020 16:00:18 12.9 C 20 %
524 30-03-2020 16:10:18 13.6 C 20 %
525 30-03-2020 16:20:17 15.2 C 20 %
Sensor: Nr:Datum:Temp:Feuchte:
Aussen-T/F 526 30-03-2020 16:30:18 9.9 C 20 %
527 30-03-2020 16:40:18 13.9 C 20 %
528 30-03-2020 16:50:18 13.6 C 20 %
529 30-03-2020 17:00:17 10.1 C 20 %
530 30-03-2020 17:10:17 13.4 C 20 %
531 30-03-2020 17:20:18 12.5 C 20 %
532 30-03-2020 17:30:18 12.6 C 20 %
533 30-03-2020 17:40:18 11.6 C 20 %
534 30-03-2020 17:50:18 10.2 C 20 %
535 30-03-2020 18:00:18 8.7 C 20 %
536 30-03-2020 18:10:18 7.6 C 20 %
537 30-03-2020 18:20:18 7.9 C 20 %
538 30-03-2020 18:30:18 8.2 C 20 %
539 30-03-2020 18:40:18 7.7 C 20 %
540 30-03-2020 18:50:18 7.8 C 20 %
541 30-03-2020 19:00:18 7.3 C 20 %
542 30-03-2020 19:10:18 7.1 C 20 %
543 30-03-2020 19:20:17 6.5 C 20 %
544 30-03-2020 19:30:18 6.3 C 20 %
545 30-03-2020 19:40:18 5.8 C 20 %
546 30-03-2020 19:50:17 5 C 20 %
547 30-03-2020 20:00:18 3.8 C 27 %
548 30-03-2020 20:10:18 3 C 30 %
549 30-03-2020 20:20:17 2.8 C 30 %
550 30-03-2020 20:30:18 3.3 C 31 %
Sensor: Nr:Datum:Temp:Feuchte:
Aussen-T/F 551 30-03-2020 20:40:18 3.2 C 30 %
552 30-03-2020 20:50:18 3.3 C 31 %
553 30-03-2020 21:00:18 4 C 29 %
554 30-03-2020 21:10:18 4.1 C 29 %
555 30-03-2020 21:20:18 4.2 C 30 %
556 30-03-2020 21:30:18 4.3 C 30 %
557 30-03-2020 21:40:18 4.2 C 30 %
558 30-03-2020 21:50:18 4.1 C 30 %
559 30-03-2020 22:00:18 3.7 C 32 %
560 30-03-2020 22:10:18 3.7 C 33 %
561 30-03-2020 22:20:17 3.9 C 32 %
562 30-03-2020 22:30:18 4 C 31 %
563 30-03-2020 22:40:18 4.1 C 31 %
564 30-03-2020 22:50:18 4.2 C 31 %
565 30-03-2020 23:00:18 4.1 C 31 %
566 30-03-2020 23:10:18 4.2 C 30 %
567 30-03-2020 23:20:18 4.2 C 31 %
568 30-03-2020 23:30:18 4.1 C 31 %
569 30-03-2020 23:40:18 4.2 C 31 %
570 30-03-2020 23:50:17 4.2 C 31 %
571 31-03-2020 00:00:18 4.3 C 30 %
572 31-03-2020 00:10:18 4.3 C 30 %
573 31-03-2020 00:20:18 4.2 C 31 %
574 31-03-2020 00:30:18 4.2 C 31 %
575 31-03-2020 00:40:18 4.2 C 31 %
Sensor: Nr:Datum:Temp:Feuchte:
Aussen-T/F 576 31-03-2020 00:50:18 4.3 C 31 %
577 31-03-2020 01:00:18 4.4 C 32 %
578 31-03-2020 01:10:18 4 C 34 %
579 31-03-2020 01:20:18 3.8 C 36 %
580 31-03-2020 01:30:18 3.8 C 36 %
581 31-03-2020 01:40:18 3.7 C 37 %
582 31-03-2020 01:50:18 4 C 37 %
583 31-03-2020 02:00:18 3.9 C 38 %
584 31-03-2020 02:10:18 3.4 C 39 %
585 31-03-2020 02:20:17 3.5 C 39 %
586 31-03-2020 02:30:18 3.7 C 39 %
587 31-03-2020 02:40:18 3.3 C 40 %
588 31-03-2020 02:50:18 2.8 C 41 %
589 31-03-2020 03:00:18 2.5 C 41 %
590 31-03-2020 03:10:18 2.2 C 42 %
591 31-03-2020 03:20:17 2.4 C 42 %
592 31-03-2020 03:30:18 2.3 C 42 %
593 31-03-2020 03:40:18 2.3 C 43 %
594 31-03-2020 03:50:18 2.7 C 43 %
595 31-03-2020 04:00:18 2.9 C 42 %
596 31-03-2020 04:10:18 3 C 42 %
597 31-03-2020 04:20:18 3.1 C 42 %
598 31-03-2020 04:30:17 3.2 C 42 %
599 31-03-2020 04:40:18 3.2 C 41 %
600 31-03-2020 04:50:17 3.5 C 41 %
Sensor: Nr:Datum:Temp:Feuchte:
Aussen-T/F 601 31-03-2020 05:00:18 3.4 C 41 %
602 31-03-2020 05:10:18 3 C 41 %
603 31-03-2020 05:20:17 2.8 C 43 %
604 31-03-2020 05:30:18 2.5 C 43 %
605 31-03-2020 05:40:18 2.3 C 43 %
606 31-03-2020 05:50:18 1.9 C 44 %
607 31-03-2020 06:00:18 1.7 C 44 %
608 31-03-2020 06:10:18 1.6 C 45 %
609 31-03-2020 06:20:18 1.5 C 45 %
610 31-03-2020 06:30:18 1.7 C 45 %
611 31-03-2020 06:40:18 2 C 45 %
612 31-03-2020 06:50:18 2.1 C 45 %
613 31-03-2020 07:00:18 2.2 C 45 %
614 31-03-2020 07:10:18 2.3 C 45 %
615 31-03-2020 07:20:18 2.2 C 44 %
616 31-03-2020 07:30:18 2.1 C 44 %
617 31-03-2020 07:40:18 1.7 C 45 %
618 31-03-2020 07:50:17 2 C 45 %
619 31-03-2020 08:00:18 2.5 C 45 %
620 31-03-2020 08:10:18 3.1 C 43 %
621 31-03-2020 08:20:18 3.3 C 42 %
622 31-03-2020 08:30:18 3.5 C 41 %
623 31-03-2020 08:40:18 3.7 C 40 %
624 31-03-2020 08:50:17 4 C 38 %
625 31-03-2020 09:00:18 3.9 C 38 %
Sensor: Nr:Datum:Temp:Feuchte:
Aussen-T/F 626 31-03-2020 09:10:18 3.9 C 37 %
627 31-03-2020 09:20:18 4 C 36 %
628 31-03-2020 09:30:17 4 C 36 %
629 31-03-2020 09:40:17 4.1 C 35 %
630 31-03-2020 09:50:18 4.3 C 35 %
631 31-03-2020 10:00:18 4.8 C 34 %
632 31-03-2020 10:10:18 4.7 C 34 %
633 31-03-2020 10:20:18 4.5 C 34 %
634 31-03-2020 10:30:18 4.4 C 34 %
635 31-03-2020 10:40:18 4.3 C 34 %
636 31-03-2020 10:50:17 4.3 C 33 %
637 31-03-2020 11:00:17 4.3 C 33 %
638 31-03-2020 11:10:17 4.4 C 32 %
639 31-03-2020 11:20:18 4.7 C 31 %
640 31-03-2020 11:30:18 5.4 C 30 %
641 31-03-2020 11:40:18 5.3 C 30 %
642 31-03-2020 11:50:17 5.3 C 29 %
643 31-03-2020 12:00:18 5.6 C 27 %
644 31-03-2020 12:10:18 6.3 C 25 %
645 31-03-2020 12:20:17 6.4 C 20 %
646 31-03-2020 12:30:18 9.2 C 20 %
647 31-03-2020 12:40:18 8.4 C 20 %
648 31-03-2020 12:50:18 7 C 20 %
649 31-03-2020 13:00:17 7.5 C 20 %
650 31-03-2020 13:10:17 7.1 C 20 %
Sensor: Nr:Datum:Temp:Feuchte:
Aussen-T/F 651 31-03-2020 13:20:17 7.3 C 20 %
652 31-03-2020 13:30:17 7 C 20 %
653 31-03-2020 13:40:17 8.1 C 20 %
654 31-03-2020 13:51:17 8.4 C 20 %
655 31-03-2020 14:00:17 8.5 C 20 %
656 31-03-2020 14:10:17 9.7 C 20 %
657 31-03-2020 14:20:17 11.2 C 20 %
658 31-03-2020 14:30:17 12.6 C 20 %
659 31-03-2020 14:40:17 11.7 C 20 %
660 31-03-2020 14:51:17 12 C 20 %
661 31-03-2020 15:00:17 12 C 20 %
662 31-03-2020 15:10:18 13.1 C 20 %
663 31-03-2020 15:20:17 13.2 C 20 %
664 31-03-2020 15:30:17 13.5 C 20 %
665 31-03-2020 15:40:17 14.6 C 20 %
666 31-03-2020 15:50:18 13.9 C 20 %
667 31-03-2020 16:00:17 16.8 C 20 %
668 31-03-2020 16:10:17 14.8 C 20 %
669 31-03-2020 16:20:17 15.8 C 20 %
670 31-03-2020 16:31:17 15.1 C 20 %
671 31-03-2020 16:40:17 14 C 20 %
672 31-03-2020 16:50:17 13.3 C 20 %
673 31-03-2020 17:00:17 14.4 C 20 %
674 31-03-2020 17:10:17 16.2 C 20 %
675 31-03-2020 17:21:17 15.3 C 20 %
Sensor: Nr:Datum:Temp:Feuchte:
Aussen-T/F 676 31-03-2020 17:31:17 14.7 C 20 %
677 31-03-2020 17:40:17 15.5 C 20 %
678 31-03-2020 17:51:17 10.6 C 20 %
679 31-03-2020 18:01:17 10.5 C 20 %
680 31-03-2020 18:11:17 10.2 C 20 %
681 31-03-2020 18:21:17 9.8 C 20 %
682 31-03-2020 18:31:17 9.6 C 20 %
683 31-03-2020 18:40:17 9.4 C 20 %
684 31-03-2020 18:51:17 9.1 C 20 %
685 31-03-2020 19:00:17 9.1 C 20 %
686 31-03-2020 19:10:17 8.8 C 20 %
687 31-03-2020 19:20:17 8.7 C 20 %
688 31-03-2020 19:31:17 8.2 C 20 %
689 31-03-2020 19:41:17 7.7 C 20 %
690 31-03-2020 19:50:17 6.6 C 20 %
691 31-03-2020 20:01:17 5.6 C 20 %
692 31-03-2020 20:11:17 5.5 C 20 %
693 31-03-2020 20:21:17 5.3 C 20 %
694 31-03-2020 20:31:17 4.7 C 20 %
695 31-03-2020 20:41:17 4.4 C 20 %
696 31-03-2020 20:51:17 4 C 20 %
697 31-03-2020 21:00:17 3.7 C 20 %
698 31-03-2020 21:10:18 3.9 C 20 %
699 31-03-2020 21:21:17 3.7 C 20 %
700 31-03-2020 21:31:17 3.5 C 20 %
Sensor: Nr:Datum:Temp:Feuchte:
Aussen-T/F 701 31-03-2020 21:41:17 3.2 C 23 %
702 31-03-2020 21:51:17 3.2 C 23 %
703 31-03-2020 22:00:18 3 C 23 %
704 31-03-2020 22:10:18 2.7 C 25 %
705 31-03-2020 22:21:17 2.7 C 25 %
706 31-03-2020 22:31:17 2.6 C 25 %
707 31-03-2020 22:41:17 1.8 C 30 %
708 31-03-2020 22:50:18 1.6 C 30 %
709 31-03-2020 23:01:17 1.6 C 30 %
710 31-03-2020 23:11:17 1.7 C 30 %
711 31-03-2020 23:21:17 1.4 C 31 %
712 31-03-2020 23:30:17 1.3 C 31 %
713 31-03-2020 23:40:18 1.6 C 31 %
714 31-03-2020 23:51:17 0.9 C 32 %
Sensor: Nr:Datum:Temp:Feuchte:
G-T/H 1 27-03-2020 00:00:18 8.6 C 66 %
2 27-03-2020 00:10:18 8.6 C 66 %
3 27-03-2020 00:20:17 8.6 C 66 %
4 27-03-2020 00:30:17 8.6 C 66 %
5 27-03-2020 00:40:17 8.6 C 66 %
6 27-03-2020 00:50:18 8.6 C 66 %
7 27-03-2020 01:00:18 8.6 C 66 %
8 27-03-2020 01:10:18 8.6 C 66 %
9 27-03-2020 01:20:17 8.6 C 66 %
10 27-03-2020 01:30:18 8.6 C 66 %
11 27-03-2020 01:40:18 8.6 C 66 %
12 27-03-2020 01:50:18 8.6 C 66 %
13 27-03-2020 02:00:18 8.6 C 66 %
14 27-03-2020 02:10:18 8.6 C 66 %
15 27-03-2020 02:20:17 8.6 C 66 %
16 27-03-2020 02:30:17 8.6 C 66 %
17 27-03-2020 02:40:17 8.6 C 66 %
18 27-03-2020 02:50:17 8.5 C 66 %
19 27-03-2020 03:00:17 8.6 C 66 %
20 27-03-2020 03:10:17 8.6 C 66 %
21 27-03-2020 03:20:17 8.6 C 66 %
22 27-03-2020 03:30:17 8.5 C 66 %
23 27-03-2020 03:40:17 8.5 C 66 %
24 27-03-2020 03:50:17 8.5 C 66 %
25 27-03-2020 04:00:18 8.5 C 66 %
Sensor: Nr:Datum:Temp:Feuchte:
G-T/H 26 27-03-2020 04:10:18 8.5 C 66 %
27 27-03-2020 04:20:18 8.5 C 66 %
28 27-03-2020 04:30:18 8.5 C 66 %
29 27-03-2020 04:40:18 8.5 C 66 %
30 27-03-2020 04:50:17 8.5 C 66 %
31 27-03-2020 05:00:18 8.5 C 66 %
32 27-03-2020 05:10:18 8.5 C 66 %
33 27-03-2020 05:20:18 8.5 C 66 %
34 27-03-2020 05:30:18 8.5 C 66 %
35 27-03-2020 05:40:18 8.5 C 66 %
36 27-03-2020 05:50:18 8.4 C 66 %
37 27-03-2020 06:00:18 8.5 C 66 %
38 27-03-2020 06:10:18 8.4 C 66 %
39 27-03-2020 06:20:18 8.4 C 66 %
40 27-03-2020 06:30:18 8.4 C 66 %
41 27-03-2020 06:40:18 8.4 C 66 %
42 27-03-2020 06:50:17 8.4 C 66 %
43 27-03-2020 07:00:18 8.4 C 66 %
44 27-03-2020 07:10:18 8.4 C 66 %
45 27-03-2020 07:20:18 8.4 C 65 %
46 27-03-2020 07:30:18 8.3 C 65 %
47 27-03-2020 07:40:18 8.4 C 66 %
48 27-03-2020 07:50:17 8.3 C 66 %
49 27-03-2020 08:00:17 8.3 C 66 %
50 27-03-2020 08:10:18 8.3 C 66 %
Sensor: Nr:Datum:Temp:Feuchte:
G-T/H 51 27-03-2020 08:20:18 8.3 C 66 %
52 27-03-2020 08:30:18 8.3 C 66 %
53 27-03-2020 08:40:18 8.3 C 66 %
54 27-03-2020 08:50:17 8.3 C 66 %
55 27-03-2020 09:00:18 8.3 C 66 %
56 27-03-2020 09:10:18 8.3 C 66 %
57 27-03-2020 09:20:17 8.2 C 66 %
58 27-03-2020 09:30:18 8.2 C 66 %
59 27-03-2020 09:40:18 8.3 C 66 %
60 27-03-2020 09:50:18 8.3 C 66 %
61 27-03-2020 10:00:18 8.2 C 66 %
62 27-03-2020 10:10:18 8.2 C 66 %
63 27-03-2020 10:20:17 8.3 C 66 %
64 27-03-2020 10:30:17 8.3 C 66 %
65 27-03-2020 10:40:17 8.3 C 66 %
66 27-03-2020 10:50:17 8.3 C 67 %
67 27-03-2020 11:00:17 8.3 C 67 %
68 27-03-2020 11:10:17 8.3 C 67 %
69 27-03-2020 11:20:17 8.3 C 67 %
70 27-03-2020 11:30:17 8.3 C 67 %
71 27-03-2020 11:40:17 8.3 C 67 %
72 27-03-2020 11:50:17 8.3 C 67 %
73 27-03-2020 12:00:17 8.3 C 67 %
74 27-03-2020 12:10:17 8.3 C 67 %
75 27-03-2020 12:20:17 8.4 C 67 %
Sensor: Nr:Datum:Temp:Feuchte:
G-T/H 76 27-03-2020 12:30:17 8.4 C 67 %
77 27-03-2020 12:40:18 8.4 C 67 %
78 27-03-2020 12:50:18 8.5 C 67 %
79 27-03-2020 13:00:18 8.4 C 67 %
80 27-03-2020 13:10:18 8.5 C 67 %
81 27-03-2020 13:20:17 8.5 C 67 %
82 27-03-2020 13:30:18 8.6 C 67 %
83 27-03-2020 13:40:18 8.6 C 67 %
84 27-03-2020 13:50:18 8.6 C 67 %
85 27-03-2020 14:00:18 8.7 C 67 %
86 27-03-2020 14:10:18 8.7 C 67 %
87 27-03-2020 14:20:18 8.7 C 67 %
88 27-03-2020 14:30:17 8.8 C 67 %
89 27-03-2020 14:40:17 8.8 C 67 %
90 27-03-2020 14:50:17 8.8 C 67 %
91 27-03-2020 15:00:17 8.9 C 67 %
92 27-03-2020 15:10:17 9.4 C 64 %
93 27-03-2020 15:20:17 9.7 C 61 %
94 27-03-2020 15:30:18 9.9 C 59 %
95 27-03-2020 15:40:18 10.1 C 56 %
96 27-03-2020 15:50:17 10.2 C 55 %
97 27-03-2020 16:00:17 10.4 C 54 %
98 27-03-2020 16:10:17 10.5 C 53 %
99 27-03-2020 16:20:17 10.6 C 53 %
100 27-03-2020 16:30:17 10.7 C 52 %
Sensor: Nr:Datum:Temp:Feuchte:
G-T/H 101 27-03-2020 16:40:17 10.8 C 52 %
102 27-03-2020 16:50:17 10.9 C 51 %
103 27-03-2020 17:00:18 11 C 50 %
104 27-03-2020 17:10:18 11.1 C 50 %
105 27-03-2020 17:20:18 11.2 C 49 %
106 27-03-2020 17:30:18 11.2 C 49 %
107 27-03-2020 17:40:18 11.3 C 49 %
108 27-03-2020 17:50:18 11.4 C 48 %
109 27-03-2020 18:00:17 11.4 C 49 %
110 27-03-2020 18:10:17 11.5 C 48 %
111 27-03-2020 18:20:17 11.5 C 49 %
112 27-03-2020 18:30:18 11.4 C 49 %
113 27-03-2020 18:40:18 11.3 C 50 %
114 27-03-2020 18:50:18 11.2 C 51 %
115 27-03-2020 19:00:18 11.1 C 52 %
116 27-03-2020 19:10:18 11 C 52 %
117 27-03-2020 19:20:17 11 C 52 %
118 27-03-2020 19:30:17 10.9 C 53 %
119 27-03-2020 19:40:17 10.8 C 53 %
120 27-03-2020 19:50:17 10.6 C 53 %
121 27-03-2020 20:00:18 10.6 C 53 %
122 27-03-2020 20:10:18 10.5 C 53 %
123 27-03-2020 20:20:17 10.5 C 53 %
124 27-03-2020 20:30:17 10.4 C 53 %
125 27-03-2020 20:40:17 10.4 C 54 %
Sensor: Nr:Datum:Temp:Feuchte:
G-T/H 126 27-03-2020 20:50:18 10.4 C 54 %
127 27-03-2020 21:00:17 10.2 C 54 %
128 27-03-2020 21:10:17 10.2 C 54 %
129 27-03-2020 21:20:17 10.1 C 54 %
130 27-03-2020 21:30:17 10 C 54 %
131 27-03-2020 21:40:17 9.9 C 54 %
132 27-03-2020 21:50:17 9.8 C 54 %
133 27-03-2020 22:00:17 9.7 C 54 %
134 27-03-2020 22:10:17 9.6 C 54 %
135 27-03-2020 22:20:17 9.6 C 54 %
136 27-03-2020 22:30:18 9.5 C 54 %
137 27-03-2020 22:40:18 9.4 C 54 %
138 27-03-2020 22:50:18 9.7 C 55 %
139 27-03-2020 23:00:18 9.8 C 55 %
140 27-03-2020 23:10:18 9.9 C 56 %
141 27-03-2020 23:20:17 9.9 C 56 %
142 27-03-2020 23:30:17 9.9 C 56 %
143 27-03-2020 23:40:17 10 C 56 %
144 27-03-2020 23:50:17 10 C 56 %
145 28-03-2020 00:00:17 10 C 57 %
146 28-03-2020 00:10:17 10 C 57 %
147 28-03-2020 00:20:17 10 C 58 %
148 28-03-2020 00:30:18 10.1 C 58 %
149 28-03-2020 00:40:18 10.1 C 58 %
150 28-03-2020 00:50:17 10 C 58 %
Sensor: Nr:Datum:Temp:Feuchte:
G-T/H 151 28-03-2020 01:00:17 10.1 C 59 %
152 28-03-2020 01:10:17 10.1 C 59 %
153 28-03-2020 01:20:17 10.1 C 59 %
154 28-03-2020 01:30:17 10.1 C 59 %
155 28-03-2020 01:40:18 10.1 C 59 %
156 28-03-2020 01:50:17 10.1 C 60 %
157 28-03-2020 02:00:18 10.1 C 60 %
158 28-03-2020 02:10:18 10.1 C 60 %
159 28-03-2020 02:20:18 10 C 60 %
160 28-03-2020 02:30:17 10 C 60 %
161 28-03-2020 02:40:17 10 C 60 %
162 28-03-2020 02:50:18 10.1 C 60 %
163 28-03-2020 03:00:18 10 C 60 %
164 28-03-2020 03:10:18 10 C 60 %
165 28-03-2020 03:20:17 10 C 60 %
166 28-03-2020 03:30:18 10 C 61 %
167 28-03-2020 03:40:18 10 C 61 %
168 28-03-2020 03:50:17 10 C 61 %
169 28-03-2020 04:00:18 10 C 61 %
170 28-03-2020 04:10:18 10 C 61 %
171 28-03-2020 04:20:18 10 C 61 %
172 28-03-2020 04:30:18 10 C 61 %
173 28-03-2020 04:40:18 10 C 61 %
174 28-03-2020 04:50:17 10 C 61 %
175 28-03-2020 05:00:18 9.9 C 62 %
Sensor: Nr:Datum:Temp:Feuchte:
G-T/H 176 28-03-2020 05:10:18 9.9 C 62 %
177 28-03-2020 05:20:17 9.9 C 62 %
178 28-03-2020 05:30:18 9.9 C 62 %
179 28-03-2020 05:40:18 9.8 C 62 %
180 28-03-2020 05:50:18 9.8 C 62 %
181 28-03-2020 06:00:18 9.8 C 62 %
182 28-03-2020 06:10:18 9.8 C 62 %
183 28-03-2020 06:20:17 9.8 C 62 %
184 28-03-2020 06:30:17 9.8 C 62 %
185 28-03-2020 06:40:17 9.8 C 62 %
186 28-03-2020 06:50:17 9.8 C 62 %
187 28-03-2020 07:00:17 9.8 C 62 %
188 28-03-2020 07:10:17 9.8 C 62 %
189 28-03-2020 07:20:17 9.7 C 62 %
190 28-03-2020 07:30:18 9.7 C 62 %
191 28-03-2020 07:40:18 9.7 C 62 %
192 28-03-2020 07:50:17 9.7 C 62 %
193 28-03-2020 08:00:17 9.7 C 62 %
194 28-03-2020 08:10:18 9.7 C 63 %
195 28-03-2020 08:20:18 9.7 C 63 %
196 28-03-2020 08:30:17 9.7 C 63 %
197 28-03-2020 08:40:17 9.6 C 63 %
198 28-03-2020 08:50:18 9.7 C 63 %
199 28-03-2020 09:00:18 9.6 C 63 %
200 28-03-2020 09:10:18 9.7 C 63 %
Sensor: Nr:Datum:Temp:Feuchte:
G-T/H 201 28-03-2020 09:20:17 9.6 C 63 %
202 28-03-2020 09:30:18 9.6 C 63 %
203 28-03-2020 09:40:18 9.6 C 63 %
204 28-03-2020 09:50:18 9.6 C 63 %
205 28-03-2020 10:00:18 9.6 C 63 %
206 28-03-2020 10:10:18 9.6 C 63 %
207 28-03-2020 10:20:17 9.6 C 64 %
208 28-03-2020 10:30:17 9.6 C 64 %
209 28-03-2020 10:40:17 9.6 C 64 %
210 28-03-2020 10:50:18 9.6 C 64 %
211 28-03-2020 11:00:18 9.6 C 64 %
212 28-03-2020 11:10:18 9.6 C 64 %
213 28-03-2020 11:20:17 9.6 C 64 %
214 28-03-2020 11:30:17 9.6 C 64 %
215 28-03-2020 11:40:17 9.6 C 64 %
216 28-03-2020 11:50:18 9.6 C 64 %
217 28-03-2020 12:00:17 9.7 C 64 %
218 28-03-2020 12:10:17 9.8 C 64 %
219 28-03-2020 12:20:17 9.8 C 64 %
220 28-03-2020 12:30:17 9.8 C 64 %
221 28-03-2020 12:40:17 9.8 C 64 %
222 28-03-2020 12:50:18 9.8 C 64 %
223 28-03-2020 13:00:18 9.8 C 64 %
224 28-03-2020 13:10:18 9.9 C 64 %
225 28-03-2020 13:20:18 10.6 C 62 %
Sensor: Nr:Datum:Temp:Feuchte:
G-T/H 226 28-03-2020 13:30:17 11 C 59 %
227 28-03-2020 13:40:17 11.2 C 57 %
228 28-03-2020 13:50:18 11.4 C 56 %
229 28-03-2020 14:00:17 11.5 C 56 %
230 28-03-2020 14:10:17 11.7 C 55 %
231 28-03-2020 14:20:17 11.9 C 54 %
232 28-03-2020 14:30:17 11.9 C 53 %
233 28-03-2020 14:40:17 12.1 C 52 %
234 28-03-2020 14:50:17 12.2 C 52 %
235 28-03-2020 15:00:18 12.3 C 51 %
236 28-03-2020 15:10:18 12.4 C 49 %
237 28-03-2020 15:20:18 12.4 C 49 %
238 28-03-2020 15:30:18 11.9 C 50 %
239 28-03-2020 15:40:18 11.9 C 51 %
240 28-03-2020 15:50:18 12.1 C 50 %
241 28-03-2020 16:00:18 11.8 C 51 %
242 28-03-2020 16:10:18 11.6 C 52 %
243 28-03-2020 16:20:18 11.5 C 53 %
244 28-03-2020 16:30:18 11.4 C 54 %
245 28-03-2020 16:40:18 11.4 C 55 %
246 28-03-2020 16:50:18 11.3 C 55 %
247 28-03-2020 17:00:18 11.3 C 56 %
248 28-03-2020 17:10:18 11.3 C 56 %
249 28-03-2020 17:20:18 11.2 C 56 %
250 28-03-2020 17:30:18 11.2 C 57 %
Sensor: Nr:Datum:Temp:Feuchte:
G-T/H 251 28-03-2020 17:40:18 11.2 C 57 %
252 28-03-2020 17:50:17 11.2 C 57 %
253 28-03-2020 18:00:18 11.2 C 57 %
254 28-03-2020 18:10:18 11.2 C 57 %
255 28-03-2020 18:20:17 11.2 C 58 %
256 28-03-2020 18:30:17 11.1 C 58 %
257 28-03-2020 18:40:17 11.1 C 58 %
258 28-03-2020 18:50:18 11.1 C 58 %
259 28-03-2020 19:00:18 11.1 C 58 %
260 28-03-2020 19:10:18 11.1 C 58 %
261 28-03-2020 19:20:18 11.1 C 58 %
262 28-03-2020 19:30:18 11.1 C 58 %
263 28-03-2020 19:40:18 11.1 C 58 %
264 28-03-2020 19:50:17 11.1 C 59 %
265 28-03-2020 20:00:18 11.1 C 59 %
266 28-03-2020 20:10:18 11.1 C 59 %
267 28-03-2020 20:20:17 11.1 C 59 %
268 28-03-2020 20:30:18 11.1 C 59 %
269 28-03-2020 20:40:18 11 C 59 %
270 28-03-2020 20:50:17 11 C 59 %
271 28-03-2020 21:00:17 11.1 C 60 %
272 28-03-2020 21:10:17 11 C 60 %
273 28-03-2020 21:20:17 11 C 60 %
274 28-03-2020 21:30:17 11 C 60 %
275 28-03-2020 21:40:17 11 C 60 %
Sensor: Nr:Datum:Temp:Feuchte:
G-T/H 276 28-03-2020 21:50:17 11 C 60 %
277 28-03-2020 22:00:17 11 C 60 %
278 28-03-2020 22:10:17 11 C 60 %
279 28-03-2020 22:20:17 11 C 61 %
280 28-03-2020 22:30:17 11 C 61 %
281 28-03-2020 22:40:17 11 C 61 %
282 28-03-2020 22:50:17 11 C 61 %
283 28-03-2020 23:00:17 11 C 61 %
284 28-03-2020 23:10:17 11 C 61 %
285 28-03-2020 23:20:18 11 C 61 %
286 28-03-2020 23:30:18 10.9 C 62 %
287 28-03-2020 23:40:18 10.9 C 62 %
288 28-03-2020 23:50:17 10.9 C 62 %
289 29-03-2020 00:00:18 10.9 C 62 %
290 29-03-2020 00:10:18 10.9 C 62 %
291 29-03-2020 00:20:17 10.9 C 62 %
292 29-03-2020 00:30:17 10.9 C 62 %
293 29-03-2020 00:40:17 10.9 C 62 %
294 29-03-2020 00:50:18 10.9 C 62 %
295 29-03-2020 01:00:18 10.9 C 62 %
296 29-03-2020 01:10:18 10.9 C 62 %
297 29-03-2020 01:20:17 10.8 C 62 %
298 29-03-2020 01:30:17 10.8 C 62 %
299 29-03-2020 01:40:17 10.8 C 62 %
300 29-03-2020 01:50:17 10.8 C 62 %
Sensor: Nr:Datum:Temp:Feuchte:
G-T/H 301 29-03-2020 02:00:17 10.8 C 62 %
302 29-03-2020 02:10:17 10.8 C 62 %
303 29-03-2020 02:20:18 10.8 C 62 %
304 29-03-2020 02:30:18 10.8 C 62 %
305 29-03-2020 02:40:18 10.7 C 62 %
306 29-03-2020 02:50:18 10.7 C 62 %
307 29-03-2020 04:00:18 10.7 C 62 %
308 29-03-2020 04:10:18 10.7 C 62 %
309 29-03-2020 04:20:17 10.7 C 61 %
310 29-03-2020 04:30:17 10.6 C 61 %
311 29-03-2020 04:40:17 10.6 C 61 %
312 29-03-2020 04:50:18 10.6 C 61 %
313 29-03-2020 05:00:17 10.6 C 61 %
314 29-03-2020 05:10:17 10.5 C 60 %
315 29-03-2020 05:20:17 10.5 C 60 %
316 29-03-2020 05:30:17 10.5 C 60 %
317 29-03-2020 05:40:17 10.5 C 60 %
318 29-03-2020 05:50:18 10.5 C 60 %
319 29-03-2020 06:00:18 10.5 C 60 %
320 29-03-2020 06:10:18 10.5 C 60 %
321 29-03-2020 06:20:17 10.5 C 60 %
322 29-03-2020 06:30:18 10.4 C 60 %
323 29-03-2020 06:40:18 10.4 C 60 %
324 29-03-2020 06:50:17 10.4 C 60 %
325 29-03-2020 07:00:18 10.4 C 60 %
Sensor: Nr:Datum:Temp:Feuchte:
G-T/H 326 29-03-2020 07:10:18 10.4 C 60 %
327 29-03-2020 07:20:17 10.4 C 60 %
328 29-03-2020 07:30:17 10.4 C 60 %
329 29-03-2020 07:40:17 10.3 C 61 %
330 29-03-2020 07:50:17 10.4 C 61 %
331 29-03-2020 08:00:18 10.3 C 61 %
332 29-03-2020 08:10:18 10.3 C 61 %
333 29-03-2020 08:20:17 10.3 C 60 %
334 29-03-2020 08:30:17 10.2 C 60 %
335 29-03-2020 08:40:17 10.2 C 60 %
336 29-03-2020 08:50:17 10.2 C 60 %
337 29-03-2020 09:00:17 10.2 C 60 %
338 29-03-2020 09:10:17 10.2 C 60 %
339 29-03-2020 09:20:17 10.2 C 60 %
340 29-03-2020 09:30:17 10.2 C 60 %
341 29-03-2020 09:40:17 10.2 C 60 %
342 29-03-2020 09:50:17 10.2 C 60 %
343 29-03-2020 10:00:17 10.1 C 60 %
344 29-03-2020 10:10:17 10.1 C 60 %
345 29-03-2020 10:20:17 10.1 C 60 %
346 29-03-2020 10:30:18 10.1 C 60 %
347 29-03-2020 10:40:18 10.1 C 60 %
348 29-03-2020 10:50:17 10.1 C 60 %
349 29-03-2020 11:00:18 10.1 C 60 %
350 29-03-2020 11:10:18 10.1 C 60 %
Sensor: Nr:Datum:Temp:Feuchte:
G-T/H 351 29-03-2020 11:20:18 10 C 60 %
352 29-03-2020 11:30:18 10 C 60 %
353 29-03-2020 11:40:18 10 C 60 %
354 29-03-2020 11:50:17 10 C 60 %
355 29-03-2020 12:00:17 10 C 60 %
356 29-03-2020 12:10:17 10 C 60 %
357 29-03-2020 12:20:17 10 C 60 %
358 29-03-2020 12:30:17 10 C 60 %
359 29-03-2020 12:40:17 10 C 60 %
360 29-03-2020 12:50:18 10 C 59 %
361 29-03-2020 13:00:18 10 C 59 %
362 29-03-2020 13:10:18 9.9 C 60 %
363 29-03-2020 13:20:17 9.9 C 60 %
364 29-03-2020 13:30:17 9.9 C 60 %
365 29-03-2020 13:40:18 9.9 C 60 %
366 29-03-2020 13:50:17 9.9 C 60 %
367 29-03-2020 14:00:18 9.9 C 60 %
368 29-03-2020 14:10:18 9.9 C 60 %
369 29-03-2020 14:20:17 9.9 C 60 %
370 29-03-2020 14:30:17 9.9 C 60 %
371 29-03-2020 14:40:17 9.9 C 60 %
372 29-03-2020 14:50:17 9.9 C 60 %
373 29-03-2020 15:00:17 9.9 C 60 %
374 29-03-2020 15:10:17 9.9 C 60 %
375 29-03-2020 15:20:17 9.9 C 60 %
Sensor: Nr:Datum:Temp:Feuchte:
G-T/H 376 29-03-2020 15:30:18 9.9 C 60 %
377 29-03-2020 15:40:18 9.9 C 60 %
378 29-03-2020 15:50:17 9.9 C 60 %
379 29-03-2020 16:00:18 9.9 C 60 %
380 29-03-2020 16:10:18 9.9 C 60 %
381 29-03-2020 16:20:17 9.9 C 60 %
382 29-03-2020 16:30:18 9.9 C 60 %
383 29-03-2020 16:40:18 9.9 C 60 %
384 29-03-2020 16:50:18 9.9 C 60 %
385 29-03-2020 17:00:18 9.9 C 60 %
386 29-03-2020 17:10:18 9.9 C 60 %
387 29-03-2020 17:20:17 9.9 C 60 %
388 29-03-2020 17:30:17 9.9 C 60 %
389 29-03-2020 17:40:17 9.9 C 60 %
390 29-03-2020 17:50:18 9.9 C 60 %
391 29-03-2020 18:00:18 9.9 C 60 %
392 29-03-2020 18:10:18 9.9 C 60 %
393 29-03-2020 18:20:18 9.9 C 60 %
394 29-03-2020 18:30:18 9.9 C 60 %
395 29-03-2020 18:40:18 9.9 C 60 %
396 29-03-2020 18:50:18 9.9 C 60 %
397 29-03-2020 19:00:18 9.9 C 60 %
398 29-03-2020 19:10:18 9.9 C 60 %
399 29-03-2020 19:20:17 9.9 C 60 %
400 29-03-2020 19:30:17 9.9 C 60 %
Sensor: Nr:Datum:Temp:Feuchte:
G-T/H 401 29-03-2020 19:40:17 9.9 C 60 %
402 29-03-2020 19:50:17 9.9 C 60 %
403 29-03-2020 20:00:17 9.8 C 60 %
404 29-03-2020 20:10:17 9.8 C 61 %
405 29-03-2020 20:20:18 9.8 C 61 %
406 29-03-2020 20:30:18 9.8 C 61 %
407 29-03-2020 20:40:18 9.8 C 61 %
408 29-03-2020 20:50:18 9.8 C 61 %
409 29-03-2020 21:00:18 9.8 C 61 %
410 29-03-2020 21:10:18 9.8 C 61 %
411 29-03-2020 21:20:18 9.8 C 61 %
412 29-03-2020 21:30:17 9.8 C 61 %
413 29-03-2020 21:40:17 9.8 C 62 %
414 29-03-2020 21:50:17 9.8 C 62 %
415 29-03-2020 22:00:17 9.8 C 62 %
416 29-03-2020 22:10:17 9.8 C 62 %
417 29-03-2020 22:20:18 9.8 C 61 %
418 29-03-2020 22:30:18 9.7 C 61 %
419 29-03-2020 22:40:18 9.7 C 61 %
420 29-03-2020 22:50:18 9.7 C 61 %
421 29-03-2020 23:00:18 9.7 C 61 %
422 29-03-2020 23:10:18 9.7 C 61 %
423 29-03-2020 23:20:17 9.7 C 61 %
424 29-03-2020 23:30:17 9.7 C 61 %
425 29-03-2020 23:40:17 9.6 C 61 %
Sensor: Nr:Datum:Temp:Feuchte:
G-T/H 426 29-03-2020 23:50:17 9.6 C 61 %
427 30-03-2020 00:00:18 9.6 C 61 %
428 30-03-2020 00:10:18 9.6 C 60 %
429 30-03-2020 00:20:17 9.6 C 60 %
430 30-03-2020 00:30:17 9.6 C 60 %
431 30-03-2020 00:40:17 9.6 C 60 %
432 30-03-2020 00:50:17 9.5 C 60 %
433 30-03-2020 01:00:18 9.5 C 60 %
434 30-03-2020 01:10:18 9.5 C 61 %
435 30-03-2020 01:20:17 9.5 C 61 %
436 30-03-2020 01:30:18 9.5 C 61 %
437 30-03-2020 01:40:18 9.5 C 61 %
438 30-03-2020 01:50:17 9.4 C 61 %
439 30-03-2020 02:00:17 9.4 C 61 %
440 30-03-2020 02:10:17 9.4 C 61 %
441 30-03-2020 02:20:17 9.4 C 61 %
442 30-03-2020 02:30:18 9.4 C 61 %
443 30-03-2020 02:40:18 9.3 C 61 %
444 30-03-2020 02:50:17 9.3 C 61 %
445 30-03-2020 03:00:18 9.3 C 61 %
446 30-03-2020 03:10:18 9.3 C 61 %
447 30-03-2020 03:20:18 9.3 C 61 %
448 30-03-2020 03:30:18 9.3 C 61 %
449 30-03-2020 03:40:18 9.2 C 61 %
450 30-03-2020 03:50:17 9.2 C 61 %
Sensor: Nr:Datum:Temp:Feuchte:
G-T/H 451 30-03-2020 04:00:18 9.2 C 61 %
452 30-03-2020 04:10:18 9.1 C 61 %
453 30-03-2020 04:20:17 9.2 C 60 %
454 30-03-2020 04:30:17 9.2 C 60 %
455 30-03-2020 04:40:17 9.1 C 60 %
456 30-03-2020 04:50:17 9.1 C 60 %
457 30-03-2020 05:00:17 9 C 60 %
458 30-03-2020 05:10:17 9 C 60 %
459 30-03-2020 05:20:17 9 C 60 %
460 30-03-2020 05:30:18 9 C 60 %
461 30-03-2020 05:40:18 9 C 60 %
462 30-03-2020 05:50:17 9 C 60 %
463 30-03-2020 06:00:18 8.9 C 61 %
464 30-03-2020 06:10:18 8.9 C 61 %
465 30-03-2020 06:20:17 8.9 C 61 %
466 30-03-2020 06:30:17 8.8 C 61 %
467 30-03-2020 06:40:17 8.9 C 61 %
468 30-03-2020 06:50:17 8.8 C 61 %
469 30-03-2020 07:00:17 8.7 C 61 %
470 30-03-2020 07:10:17 8.7 C 61 %
471 30-03-2020 07:20:17 8.7 C 61 %
472 30-03-2020 07:30:18 8.7 C 60 %
473 30-03-2020 07:40:18 8.7 C 60 %
474 30-03-2020 07:50:17 8.7 C 60 %
475 30-03-2020 08:00:18 8.6 C 60 %
Sensor: Nr:Datum:Temp:Feuchte:
G-T/H 476 30-03-2020 08:10:18 8.6 C 60 %
477 30-03-2020 08:20:18 8.6 C 60 %
478 30-03-2020 08:30:18 8.5 C 60 %
479 30-03-2020 08:40:18 8.5 C 60 %
480 30-03-2020 08:50:17 8.5 C 60 %
481 30-03-2020 09:00:18 8.5 C 60 %
482 30-03-2020 09:10:18 8.5 C 60 %
483 30-03-2020 09:20:18 8.5 C 60 %
484 30-03-2020 09:30:18 8.5 C 60 %
485 30-03-2020 09:40:18 8.4 C 60 %
486 30-03-2020 09:50:18 8.4 C 60 %
487 30-03-2020 10:00:18 8.4 C 60 %
488 30-03-2020 10:10:18 8.4 C 60 %
489 30-03-2020 10:20:17 8.3 C 60 %
490 30-03-2020 10:30:17 8.3 C 60 %
491 30-03-2020 10:40:17 8.3 C 60 %
492 30-03-2020 10:50:17 8.3 C 60 %
493 30-03-2020 11:00:17 8.3 C 60 %
494 30-03-2020 11:10:18 8.3 C 60 %
495 30-03-2020 11:20:18 8.2 C 60 %
496 30-03-2020 11:30:18 8.2 C 60 %
497 30-03-2020 11:40:18 8.2 C 60 %
498 30-03-2020 11:50:18 8.2 C 60 %
499 30-03-2020 12:00:18 8.2 C 60 %
500 30-03-2020 12:10:18 8.2 C 60 %
Sensor: Nr:Datum:Temp:Feuchte:
G-T/H 501 30-03-2020 12:20:18 8.2 C 60 %
502 30-03-2020 12:30:18 8.2 C 60 %
503 30-03-2020 12:40:18 8.2 C 60 %
504 30-03-2020 12:50:18 8.2 C 60 %
505 30-03-2020 13:00:18 8.1 C 60 %
506 30-03-2020 13:10:18 8.2 C 60 %
507 30-03-2020 13:20:18 7.9 C 52 %
508 30-03-2020 13:30:17 8 C 50 %
509 30-03-2020 13:40:17 8 C 50 %
510 30-03-2020 13:50:17 8 C 51 %
511 30-03-2020 14:00:17 8 C 52 %
512 30-03-2020 14:10:17 8.1 C 53 %
513 30-03-2020 14:20:18 8.1 C 54 %
514 30-03-2020 14:30:18 8.1 C 54 %
515 30-03-2020 14:40:18 8.1 C 55 %
516 30-03-2020 14:50:18 8.1 C 55 %
517 30-03-2020 15:00:18 8.1 C 56 %
518 30-03-2020 15:10:18 8.1 C 56 %
519 30-03-2020 15:20:17 8.2 C 56 %
520 30-03-2020 15:30:18 8.2 C 56 %
521 30-03-2020 15:40:18 8.2 C 57 %
522 30-03-2020 15:50:18 8.2 C 57 %
523 30-03-2020 16:00:18 8.2 C 57 %
524 30-03-2020 16:10:18 8.3 C 57 %
525 30-03-2020 16:20:17 8.3 C 57 %
Sensor: Nr:Datum:Temp:Feuchte:
G-T/H 526 30-03-2020 16:30:18 8.3 C 58 %
527 30-03-2020 16:40:18 8.3 C 58 %
528 30-03-2020 16:50:18 8.3 C 58 %
529 30-03-2020 17:00:17 8.3 C 58 %
530 30-03-2020 17:10:17 8.3 C 58 %
531 30-03-2020 17:20:18 8.4 C 58 %
532 30-03-2020 17:30:18 8.4 C 58 %
533 30-03-2020 17:40:18 8.4 C 58 %
534 30-03-2020 17:50:18 8.4 C 58 %
535 30-03-2020 18:00:18 8.4 C 59 %
536 30-03-2020 18:10:18 8.4 C 59 %
537 30-03-2020 18:20:18 8.4 C 59 %
538 30-03-2020 18:30:18 8.5 C 59 %
539 30-03-2020 18:40:18 8.4 C 59 %
540 30-03-2020 18:50:18 8.4 C 59 %
541 30-03-2020 19:00:18 8.4 C 60 %
542 30-03-2020 19:10:18 8.5 C 60 %
543 30-03-2020 19:20:17 8.5 C 60 %
544 30-03-2020 19:30:18 8.5 C 60 %
545 30-03-2020 19:40:18 8.5 C 60 %
546 30-03-2020 19:50:17 8.5 C 60 %
547 30-03-2020 20:00:18 8.5 C 60 %
548 30-03-2020 20:10:18 8.5 C 60 %
549 30-03-2020 20:20:17 8.5 C 61 %
550 30-03-2020 20:30:18 8.5 C 61 %
Sensor: Nr:Datum:Temp:Feuchte:
G-T/H 551 30-03-2020 20:40:18 8.5 C 61 %
552 30-03-2020 20:50:18 8.5 C 61 %
553 30-03-2020 21:00:18 8.5 C 61 %
554 30-03-2020 21:10:18 8.5 C 61 %
555 30-03-2020 21:20:18 8.5 C 61 %
556 30-03-2020 21:30:18 8.5 C 61 %
557 30-03-2020 21:40:18 8.5 C 61 %
558 30-03-2020 21:50:18 8.5 C 61 %
559 30-03-2020 22:00:18 8.5 C 62 %
560 30-03-2020 22:10:18 8.5 C 62 %
561 30-03-2020 22:20:17 8.5 C 62 %
562 30-03-2020 22:30:18 8.5 C 62 %
563 30-03-2020 22:40:18 8.5 C 62 %
564 30-03-2020 22:50:18 8.5 C 62 %
565 30-03-2020 23:00:18 8.5 C 62 %
566 30-03-2020 23:10:18 8.5 C 62 %
567 30-03-2020 23:20:18 8.5 C 62 %
568 30-03-2020 23:30:18 8.6 C 62 %
569 30-03-2020 23:40:18 8.5 C 62 %
570 30-03-2020 23:50:17 8.5 C 62 %
571 31-03-2020 00:00:18 8.5 C 62 %
572 31-03-2020 00:10:18 8.5 C 62 %
573 31-03-2020 00:20:18 8.5 C 62 %
574 31-03-2020 00:30:18 8.5 C 63 %
575 31-03-2020 00:40:18 8.6 C 63 %
Sensor: Nr:Datum:Temp:Feuchte:
G-T/H 576 31-03-2020 00:50:18 8.5 C 63 %
577 31-03-2020 01:00:18 8.5 C 63 %
578 31-03-2020 01:10:18 8.5 C 63 %
579 31-03-2020 01:20:18 8.6 C 63 %
580 31-03-2020 01:30:18 8.5 C 63 %
581 31-03-2020 01:40:18 8.6 C 63 %
582 31-03-2020 01:50:18 8.5 C 63 %
583 31-03-2020 02:00:18 8.5 C 63 %
584 31-03-2020 02:10:18 8.5 C 63 %
585 31-03-2020 02:20:17 8.5 C 63 %
586 31-03-2020 02:30:18 8.5 C 63 %
587 31-03-2020 02:40:18 8.5 C 63 %
588 31-03-2020 02:50:18 8.5 C 63 %
589 31-03-2020 03:00:18 8.5 C 64 %
590 31-03-2020 03:10:18 8.5 C 64 %
591 31-03-2020 03:20:17 8.5 C 64 %
592 31-03-2020 03:30:18 8.5 C 64 %
593 31-03-2020 03:40:18 8.5 C 64 %
594 31-03-2020 03:50:18 8.5 C 64 %
595 31-03-2020 04:00:18 8.5 C 64 %
596 31-03-2020 04:10:18 8.5 C 64 %
597 31-03-2020 04:20:18 8.5 C 64 %
598 31-03-2020 04:30:17 8.5 C 64 %
599 31-03-2020 04:40:18 8.5 C 64 %
600 31-03-2020 04:50:17 8.5 C 64 %
Sensor: Nr:Datum:Temp:Feuchte:
G-T/H 601 31-03-2020 05:00:18 8.5 C 64 %
602 31-03-2020 05:10:18 8.5 C 64 %
603 31-03-2020 05:20:17 8.5 C 64 %
604 31-03-2020 05:30:18 8.5 C 64 %
605 31-03-2020 05:40:18 8.5 C 64 %
606 31-03-2020 05:50:18 8.5 C 64 %
607 31-03-2020 06:00:18 8.5 C 64 %
608 31-03-2020 06:10:18 8.5 C 64 %
609 31-03-2020 06:20:18 8.5 C 64 %
610 31-03-2020 06:30:18 8.4 C 64 %
611 31-03-2020 06:40:18 8.5 C 64 %
612 31-03-2020 06:50:18 8.4 C 64 %
613 31-03-2020 07:00:18 8.5 C 64 %
614 31-03-2020 07:10:18 8.4 C 64 %
615 31-03-2020 07:20:18 8.4 C 64 %
616 31-03-2020 07:30:18 8.4 C 64 %
617 31-03-2020 07:40:18 8.4 C 65 %
618 31-03-2020 07:50:17 8.4 C 65 %
619 31-03-2020 08:00:18 8.4 C 65 %
620 31-03-2020 08:10:18 8.4 C 65 %
621 31-03-2020 08:20:18 8.4 C 65 %
622 31-03-2020 08:30:18 8.4 C 65 %
623 31-03-2020 08:40:18 8.4 C 65 %
624 31-03-2020 08:50:17 8.4 C 65 %
625 31-03-2020 09:00:18 8.4 C 65 %
Sensor: Nr:Datum:Temp:Feuchte:
G-T/H 626 31-03-2020 09:10:18 8.4 C 65 %
627 31-03-2020 09:20:18 8.4 C 65 %
628 31-03-2020 09:30:17 8.4 C 65 %
629 31-03-2020 09:40:17 8.4 C 65 %
630 31-03-2020 09:50:18 8.4 C 65 %
631 31-03-2020 10:00:18 8.4 C 65 %
632 31-03-2020 10:10:18 8.4 C 65 %
633 31-03-2020 10:20:18 8.4 C 65 %
634 31-03-2020 10:30:18 8.4 C 65 %
635 31-03-2020 10:40:18 8.4 C 64 %
636 31-03-2020 10:50:17 8.4 C 64 %
637 31-03-2020 11:00:17 8.4 C 64 %
638 31-03-2020 11:10:17 8.4 C 64 %
639 31-03-2020 11:20:18 8.4 C 64 %
640 31-03-2020 11:30:18 8.4 C 64 %
641 31-03-2020 11:40:18 8.4 C 64 %
642 31-03-2020 11:50:17 8.4 C 64 %
643 31-03-2020 12:00:18 8.4 C 64 %
644 31-03-2020 12:10:18 8.4 C 64 %
645 31-03-2020 12:20:17 8.4 C 64 %
646 31-03-2020 12:30:18 8.4 C 64 %
647 31-03-2020 12:40:18 8.5 C 64 %
648 31-03-2020 12:50:18 8.5 C 64 %
649 31-03-2020 13:00:17 8.5 C 64 %
650 31-03-2020 13:10:17 8.5 C 64 %
Sensor: Nr:Datum:Temp:Feuchte:
G-T/H 651 31-03-2020 13:20:17 8.5 C 63 %
652 31-03-2020 13:30:17 8.5 C 63 %
653 31-03-2020 13:40:17 8.4 C 63 %
654 31-03-2020 13:51:17 8.5 C 63 %
655 31-03-2020 14:00:17 8.5 C 63 %
656 31-03-2020 14:10:17 8.5 C 63 %
657 31-03-2020 14:20:17 8.5 C 63 %
658 31-03-2020 14:30:17 8.5 C 63 %
659 31-03-2020 14:40:17 8.5 C 63 %
660 31-03-2020 14:51:17 8.6 C 63 %
661 31-03-2020 15:00:17 8.6 C 63 %
662 31-03-2020 15:10:18 8.6 C 63 %
663 31-03-2020 15:20:17 8.6 C 63 %
664 31-03-2020 15:30:17 8.6 C 63 %
665 31-03-2020 15:40:17 8.6 C 63 %
666 31-03-2020 15:50:18 8.6 C 63 %
667 31-03-2020 16:00:17 8.6 C 63 %
668 31-03-2020 16:10:17 8.6 C 63 %
669 31-03-2020 16:20:17 8.6 C 63 %
670 31-03-2020 16:31:17 8.7 C 63 %
671 31-03-2020 16:40:17 8.7 C 63 %
672 31-03-2020 16:50:17 8.7 C 63 %
673 31-03-2020 17:00:17 8.7 C 63 %
674 31-03-2020 17:10:17 8.7 C 63 %
675 31-03-2020 17:21:17 8.7 C 63 %
Sensor: Nr:Datum:Temp:Feuchte:
G-T/H 676 31-03-2020 17:31:17 8.8 C 63 %
677 31-03-2020 17:40:17 8.8 C 63 %
678 31-03-2020 17:51:17 8.8 C 62 %
679 31-03-2020 18:01:17 8.8 C 59 %
680 31-03-2020 18:11:17 8.8 C 56 %
681 31-03-2020 18:21:17 8.8 C 56 %
682 31-03-2020 18:31:17 8.8 C 56 %
683 31-03-2020 18:40:17 8.8 C 56 %
684 31-03-2020 18:51:17 8.8 C 57 %
685 31-03-2020 19:00:17 8.8 C 58 %
686 31-03-2020 19:10:17 8.9 C 58 %
687 31-03-2020 19:20:17 8.8 C 58 %
688 31-03-2020 19:31:17 8.9 C 59 %
689 31-03-2020 19:41:17 8.9 C 59 %
690 31-03-2020 19:50:17 8.9 C 59 %
691 31-03-2020 20:01:17 8.9 C 60 %
692 31-03-2020 20:11:17 8.9 C 60 %
693 31-03-2020 20:21:17 8.9 C 60 %
694 31-03-2020 20:31:17 8.9 C 61 %
695 31-03-2020 20:41:17 8.9 C 61 %
696 31-03-2020 20:51:17 8.9 C 61 %
697 31-03-2020 21:00:17 8.9 C 61 %
698 31-03-2020 21:10:18 8.9 C 61 %
699 31-03-2020 21:21:17 8.8 C 61 %
700 31-03-2020 21:31:17 8.9 C 61 %
Sensor: Nr:Datum:Temp:Feuchte:
G-T/H 701 31-03-2020 21:41:17 8.9 C 62 %
702 31-03-2020 21:51:17 8.9 C 62 %
703 31-03-2020 22:00:18 8.9 C 62 %
704 31-03-2020 22:10:18 8.8 C 62 %
705 31-03-2020 22:21:17 8.8 C 62 %
706 31-03-2020 22:31:17 8.8 C 62 %
707 31-03-2020 22:41:17 8.8 C 62 %
708 31-03-2020 22:50:18 8.8 C 62 %
709 31-03-2020 23:01:17 8.8 C 62 %
710 31-03-2020 23:11:17 8.8 C 62 %
711 31-03-2020 23:21:17 8.8 C 62 %
712 31-03-2020 23:30:17 8.8 C 62 %
713 31-03-2020 23:40:18 8.8 C 62 %
714 31-03-2020 23:51:17 8.8 C 62 %

Legende:
   Min
   Max


Maximal/Minimal-Werte vom 27.03.2020 - 31.03.2020

Sensor Min Max Avg
Temp
(Aussen-T/F)
-4.5 °C
30-03-2020  07:40:18
24.3 °C
28-03-2020  14:40:17
6.33 °C
Feuchte
(Aussen-T/F)
20 %
27-03-2020  11:00:17
47 %
28-03-2020  06:50:17
30.2 %
Temp
(G-T/H)
7.9 °C
30-03-2020  13:20:18
12.4 °C
28-03-2020  15:10:18
9.4 °C
Feuchte
(G-T/H)
48 %
27-03-2020  17:50:18
67 %
27-03-2020  10:50:17
60.81 %

Die Daten stammen von einer Davis Vantage Pro 2 Wetter-Station und werden unter Linux mit der Software wview2wettercgi und aufbereitet. Alle Angaben erfolgen ohne Gewähr für ihre Vollständigkeit oder Richtigkeit.
Kontakt: Rainer Krienke krienke@uni-koblenz.de . Meine Webseiten an der Uni Koblenz oder privat.
Version: $Revision: 0.78 $